Weather History for KMGY - August, 2014

Change the Weather History Date:

Thursday, August 14, 2014

  Actual Average (KDAY) Record (KDAY)
Temperature  
Mean Temperature 71 °F 73 °F  
Max Temperature 79 °F 83 °F 96 °F (1901)
Min Temperature 64 °F 63 °F 44 °F (1964)
Degree Days  
Heating Degree Days 0 0  
Month to date heating degree days 0  
Since 1 June heating degree days 22  
Since 1 July heating degree days 0  
Cooling Degree Days 6 8  
Month to date cooling degree days 118  
Year to date cooling degree days 657  
Since 1 June cooling degree days 587  
Growing Degree Days 21 (Base 50)    
Moisture  
Dew Point 55 °F    
Average Humidity 61    
Maximum Humidity 90    
Minimum Humidity 42    
Precipitation  
Precipitation 0.00 in 0.09 in 1.06 in (2010)
Month to date precipitation 1.30  
Year to date precipitation 26.62  
Snow  
Snow 0.00 in 0.00 in 0.00 in ()
Month to date snowfall 0.0  
Since 1 June snowfall 0.0  
Since 1 July snowfall 0.0  
Snow Depth -    
Sea Level Pressure  
Sea Level Pressure 30.00 in    
Wind  
Wind Speed 5 mph (NW)    
Max Wind Speed 15 mph    
Max Gust Speed -    
Visibility 10 miles    
Events      
T = Trace of Precipitation, MM = Missing Value Source: NWS Daily Summary

Daily Weather History Graph

Daily Weather History Graph

Search for Another Location

Airport or City:

Trip Planner

Search our weather history database for the weather conditions in past years. The results will help you decide how hot, cold, wet, or windy it might be!

Date:

Astronomy

Aug. 14, 2014 Rise Set
Actual Time 6:48 AM EDT 8:34 PM EDT
Civil Twilight 6:19 AM EDT 9:02 PM EDT
Nautical Twilight 5:44 AM EDT 9:37 PM EDT
Astronomical Twilight 5:06 AM EDT 10:15 PM EDT
Moon 10:57 PM EDT (8/14) 11:22 AM EDT (8/14)
Length of Visible Light 14h 43m
Length of Day
13h 45m
Waning Gibbous, 79% of the Moon is Illuminated
Aug 14
Waning Gibbous
Aug 17
Last Quarter
Aug 25
New
Sep 2
First Quarter
Sep 8
Full

Hourly Weather History & Observations

Time (EDT) Temp. Dew Point Humidity Pressure Visibility Wind Dir Wind Speed Gust Speed Precip Events Conditions
12:53 AM 70.0 °F 57.0 °F 63% 30.01 in 10.0 mi WSW 3.5 mph - N/A   Overcast
1:53 AM 69.1 °F 57.9 °F 68% 30.00 in 10.0 mi West 6.9 mph - N/A   Overcast
2:53 AM 68.0 °F 59.0 °F 73% 29.99 in 10.0 mi West 4.6 mph - N/A   Overcast
3:53 AM 66.9 °F 60.1 °F 79% 29.99 in 10.0 mi West 4.6 mph - N/A   Overcast
4:53 AM 66.9 °F 60.1 °F 79% 29.99 in 10.0 mi NW 5.8 mph - N/A   Overcast
5:53 AM 64.9 °F 61.0 °F 87% 29.99 in 10.0 mi WNW 4.6 mph - N/A   Partly Cloudy
6:53 AM 64.0 °F 61.0 °F 90% 30.01 in 10.0 mi WNW 4.6 mph - N/A   Clear
7:53 AM 64.9 °F 61.0 °F 87% 30.02 in 10.0 mi Calm Calm - N/A   Clear
8:53 AM 66.9 °F 55.9 °F 68% 30.04 in 10.0 mi Calm Calm - N/A   Mostly Cloudy
9:53 AM 70.0 °F 55.0 °F 59% 30.04 in 10.0 mi North 3.5 mph - N/A   Scattered Clouds
10:53 AM 71.1 °F 53.1 °F 53% 30.04 in 10.0 mi Variable 4.6 mph - N/A   Overcast
11:53 AM 73.0 °F 52.0 °F 48% 30.04 in 10.0 mi Variable 4.6 mph - N/A   Mostly Cloudy
12:53 PM 75.0 °F 51.1 °F 43% 30.02 in 10.0 mi Variable 6.9 mph - N/A   Mostly Cloudy
1:53 PM 75.9 °F 52.0 °F 43% 30.01 in 10.0 mi Variable 4.6 mph - N/A   Partly Cloudy
2:53 PM 77.0 °F 53.1 °F 43% 30.00 in 10.0 mi NNW 10.4 mph - N/A   Mostly Cloudy
3:53 PM 78.1 °F 53.1 °F 42% 29.99 in 10.0 mi NW 5.8 mph - N/A   Partly Cloudy
4:53 PM 75.9 °F 54.0 °F 46% 29.98 in 10.0 mi NNW 15.0 mph - N/A   Partly Cloudy
5:53 PM 77.0 °F 54.0 °F 45% 29.97 in 10.0 mi North 9.2 mph - N/A   Scattered Clouds
6:53 PM 75.9 °F 53.1 °F 45% 29.97 in 10.0 mi NW 10.4 mph - N/A   Clear
7:53 PM 73.0 °F 54.0 °F 51% 29.98 in 10.0 mi North 10.4 mph - N/A   Clear
8:53 PM 66.9 °F 55.0 °F 66% 29.99 in 10.0 mi NNE 5.8 mph - N/A   Clear
10:53 PM 64.9 °F 52.0 °F 63% 30.01 in 10.0 mi North 6.9 mph - N/A   Clear
11:53 PM 64.9 °F 51.1 °F 61% 30.02 in 10.0 mi North 4.6 mph - N/A   Clear